Station SPGF1 - Settlement Point, GBI, Bahamas Image indicating link to RSS feed of recent meteorological observations for station SPGF1


Conditions at SPGF1 as of
(11:00 am EDT)
1500 GMT on 04/15/2024:
     

Click on the graph icon in the table below to see a time series plot of the last five days of that observation.

5-day plot - Wind Direction Wind Direction (WDIR):ENE ( 70 deg true )
5-day plot - Wind Speed Wind Speed (WSPD): 8 kts
5-day plot - Wind Gust Wind Gust (GST): 11 kts
5-day plot - Atmospheric Pressure Atmospheric Pressure (PRES):30.15 in
5-day plot - Pressure Tendency Pressure Tendency (PTDY):+0.03 in ( Rising )
5-day plot - Air Temperature Air Temperature (ATMP): 71.8 °F
5-day plot - Wind Speed at 10 Meters Wind Speed at 10 meters (WSPD10M): 8 kts
5-day plot - Wind Speed at 20 Meters Wind Speed at 20 meters (WSPD20M): 10 kts
5-day plot -  Wind Speed, Wind Gust and Atmospheric Pressure Combined plot of Wind Speed, Gust, and Air Pressure
Continuous Winds
TIME
(EDT)
5-day plot - Wind Direction WDIR 5-day plot - Wind Speed WSPD
11:00 amE ( 80 deg ) 8 kts
10:50 amE ( 87 deg ) 8 kts
10:40 amE ( 80 deg ) 8 kts
10:30 amE ( 80 deg ) 9 kts
10:20 amE ( 81 deg ) 8 kts
10:10 amE ( 83 deg ) 8 kts
 
Peak gust during the measurement hour
TIME
(EDT)
5-day plot - Gust Direction GDR 5-day plot - Gust Speed GST
10:04 amE ( 80 deg ) 12 kts
Previous observations
TIME
(EDT)
5-day plot - Wind Direction
WDIR
 
5-day plot - Wind Speed
WSPD
kts
5-day plot - Wind Gust
GST
kts
5-day plot - Wave Height
WVHT
ft
5-day plot - Dominant Wave Period
DPD
sec
5-day plot - Average Wave Period
APD
sec
5-day plot - Mean Wave Direction
MWD
 
5-day plot - Atmospheric Pressure
PRES
in
5-day plot - Pressure Tendency
PTDY
in
5-day plot - Air Temperature
ATMP
°F
5-day plot - Water Temperature
WTMP
°F
5-day plot - Dew Point
DEWP
°F
5-day plot - Salinity
SAL
psu
5-day plot - Visibility
VIS
nmi
5-day plot - Tide (above MLLW)
TIDE
ft
2024-04-15 10:00 am E 6 8----30.15+0.03 71.6-----
2024-04-15 09:00 am E 9 11----30.14+0.04 70.9-----
2024-04-15 08:00 am E 8 10----30.12+0.04 70.5-----
2024-04-15 07:00 am SE 4 5----30.11+0.03 69.4-----
2024-04-15 06:00 am- 0 2----30.10+0.00 68.7-----
2024-04-15 05:00 amESE 6 8----30.08-0.04 69.6-----
2024-04-15 04:00 amESE 6 7----30.09-0.06 70.3-----
2024-04-15 03:00 amESE 7 9----30.10-0.04 70.7-----
2024-04-15 02:00 amESE 6 7----30.12-0.03 71.2-----
2024-04-15 01:00 am E 4 5----30.14+0.00 71.6-----
2024-04-15 12:00 am E 6 9----30.14+0.01 71.8-----
2024-04-14 11:00 pmENE 7 10----30.15+0.02 72.1-----
2024-04-14 10:00 pmENE 8 10----30.14+0.01 72.3-----
2024-04-14 09:00 pm E 11 12----30.13+0.00 72.3-----
2024-04-14 08:00 pm E 9 10----30.13-0.01 72.3-----
2024-04-14 07:00 pmENE 10 12----30.13-0.03 72.3-----
2024-04-14 06:00 pmENE 8 11----30.14-0.03 72.5-----
2024-04-14 05:00 pmENE 10 12----30.14-0.06 72.5-----
2024-04-14 04:00 pm NE 9 11----30.16-0.07 72.1-----
2024-04-14 03:00 pm NE 10 12----30.17-0.06 71.6-----
2024-04-14 02:00 pm NE 10 13----30.20-0.04 71.2-----
2024-04-14 01:00 pm E 9 11----30.22+0.00 71.2-----
2024-04-14 12:00 pm E 9 11----30.23+0.02 71.2-----
2024-04-14 11:00 am NE 11 13----30.24+0.04 71.4-----